Time,TemperatureF,DewpointF,PressureIn,WindDirection,WindDirectionDegrees,WindSpeedMPH,WindSpeedGustMPH,Humidity,HourlyPrecipIn,Conditions,Clouds,dailyrainin,SoftwareType,DateUTC
2013-08-06 00:00:00,69.8,66.4,29.84,South,188,4.0,8.0,89,0.00,,,0.00,Wunderground v.1.15,2013-08-06 05:00:00,
2013-08-06 00:04:00,69.7,66.6,29.85,SSW,197,5.0,8.0,90,0.00,,,0.00,Wunderground v.1.15,2013-08-06 05:04:00,
2013-08-06 00:06:00,69.6,66.5,29.85,South,191,5.0,8.0,90,0.00,,,0.00,Wunderground v.1.15,2013-08-06 05:06:00,
2013-08-06 00:08:00,69.5,66.4,29.85,South,172,5.0,8.0,90,0.00,,,0.00,Wunderground v.1.15,2013-08-06 05:08:00,
2013-08-06 00:10:00,69.4,66.3,29.85,South,188,5.0,8.0,90,0.00,,,0.00,Wunderground v.1.15,2013-08-06 05:10:00,
2013-08-06 00:12:00,69.4,66.7,29.84,South,184,5.0,8.0,91,0.00,,,0.00,Wunderground v.1.15,2013-08-06 05:12:00,
2013-08-06 00:14:00,69.3,66.6,29.85,SSW,207,5.0,8.0,91,0.00,,,0.00,Wunderground v.1.15,2013-08-06 05:14:00,
2013-08-06 00:16:00,69.3,66.6,29.84,SSW,195,5.0,8.0,91,0.00,,,0.00,Wunderground v.1.15,2013-08-06 05:16:00,
2013-08-06 00:18:00,69.3,66.9,29.85,SSW,199,5.0,8.0,92,0.00,,,0.00,Wunderground v.1.15,2013-08-06 05:18:00,
2013-08-06 00:20:00,69.2,66.8,29.85,South,173,5.0,8.0,92,0.00,,,0.00,Wunderground v.1.15,2013-08-06 05:20:00,
2013-08-06 00:22:00,69.3,66.9,29.85,South,188,5.0,8.0,92,0.00,,,0.00,Wunderground v.1.15,2013-08-06 05:22:00,
2013-08-06 00:24:00,69.3,66.9,29.85,SW,225,5.0,8.0,92,0.00,,,0.00,Wunderground v.1.15,2013-08-06 05:24:00,
2013-08-06 00:26:00,69.3,66.9,29.84,SSW,207,5.0,8.0,92,0.00,,,0.00,Wunderground v.1.15,2013-08-06 05:26:00,
2013-08-06 00:30:00,69.4,67.0,29.84,South,185,6.0,6.0,92,0.00,,,0.00,Wunderground v.1.15,2013-08-06 05:30:00,
2013-08-06 00:32:00,69.4,67.0,29.84,South,180,6.0,7.0,92,0.00,,,0.00,Wunderground v.1.15,2013-08-06 05:32:00,
2013-08-06 00:38:00,69.4,67.0,29.84,SSW,200,6.0,8.0,92,0.00,,,0.00,Wunderground v.1.15,2013-08-06 05:38:00,
2013-08-06 00:40:00,69.4,67.0,29.84,South,187,6.0,8.0,92,0.00,,,0.00,Wunderground v.1.15,2013-08-06 05:40:00,
2013-08-06 00:44:00,69.3,66.9,29.84,SSW,204,5.0,8.0,92,0.00,,,0.00,Wunderground v.1.15,2013-08-06 05:44:00,
2013-08-06 00:48:00,69.2,67.1,29.84,South,191,5.0,8.0,93,0.00,,,0.00,Wunderground v.1.15,2013-08-06 05:48:00,
2013-08-06 00:50:00,69.1,67.0,29.84,South,183,5.0,5.0,93,0.00,,,0.00,Wunderground v.1.15,2013-08-06 05:50:00,
2013-08-06 00:54:00,69.0,66.9,29.84,South,188,5.0,8.0,93,0.00,,,0.00,Wunderground v.1.15,2013-08-06 05:54:00,
2013-08-06 00:56:00,68.9,66.8,29.84,SSW,207,5.0,8.0,93,0.00,,,0.00,Wunderground v.1.15,2013-08-06 05:56:00,
2013-08-06 01:02:00,68.9,67.1,29.84,SSW,201,6.0,8.0,94,0.00,,,0.00,Wunderground v.1.15,2013-08-06 06:02:00,
2013-08-06 01:04:00,68.9,67.1,29.84,SSW,200,6.0,8.0,94,0.00,,,0.00,Wunderground v.1.15,2013-08-06 06:04:00,
2013-08-06 01:10:00,68.9,67.4,29.85,SSW,204,7.0,9.0,95,0.00,,,0.00,Wunderground v.1.15,2013-08-06 06:10:00,
2013-08-06 01:12:00,69.0,67.5,29.85,SSW,195,7.0,9.0,95,0.00,,,0.00,Wunderground v.1.15,2013-08-06 06:12:00,
2013-08-06 01:16:00,69.1,67.6,29.85,SW,224,7.0,9.0,95,0.00,,,0.00,Wunderground v.1.15,2013-08-06 06:16:00,
2013-08-06 01:18:00,69.2,67.7,29.85,SSW,195,7.0,9.0,95,0.00,,,0.00,Wunderground v.1.15,2013-08-06 06:18:00,
2013-08-06 01:20:00,69.3,67.8,29.85,SW,218,7.0,8.0,95,0.00,,,0.00,Wunderground v.1.15,2013-08-06 06:20:00,
2013-08-06 01:22:00,69.3,67.8,29.85,WSW,257,6.0,8.0,95,0.00,,,0.00,Wunderground v.1.15,2013-08-06 06:22:00,
2013-08-06 01:24:00,69.3,67.5,29.85,SSW,200,6.0,8.0,94,0.00,,,0.00,Wunderground v.1.15,2013-08-06 06:24:00,
2013-08-06 01:30:00,69.4,67.6,29.86,SSW,203,7.0,8.0,94,0.00,,,0.00,Wunderground v.1.15,2013-08-06 06:30:00,
2013-08-06 01:32:00,69.3,67.5,29.86,SSW,205,7.0,8.0,94,0.00,,,0.00,Wunderground v.1.15,2013-08-06 06:32:00,
2013-08-06 01:34:00,69.3,67.5,29.86,SSW,206,7.0,8.0,94,0.00,,,0.00,Wunderground v.1.15,2013-08-06 06:34:00,
2013-08-06 01:36:00,69.3,67.8,29.85,South,191,7.0,8.0,95,0.00,,,0.00,Wunderground v.1.15,2013-08-06 06:36:00,
2013-08-06 01:38:00,69.3,67.8,29.85,SW,233,7.0,8.0,95,0.00,,,0.00,Wunderground v.1.15,2013-08-06 06:38:00,
2013-08-06 01:40:00,69.2,67.7,29.85,SW,231,7.0,7.0,95,0.00,,,0.00,Wunderground v.1.15,2013-08-06 06:40:00,
2013-08-06 01:46:00,69.1,67.6,29.86,SW,219,6.0,8.0,95,0.00,,,0.00,Wunderground v.1.15,2013-08-06 06:46:00,
2013-08-06 01:48:00,69.0,67.5,29.85,South,188,6.0,8.0,95,0.00,,,0.00,Wunderground v.1.15,2013-08-06 06:48:00,
2013-08-06 01:52:00,68.9,67.4,29.85,SW,217,5.0,8.0,95,0.00,,,0.00,Wunderground v.1.15,2013-08-06 06:52:00,
2013-08-06 01:54:00,68.9,67.4,29.85,SSW,197,6.0,8.0,95,0.00,,,0.00,Wunderground v.1.15,2013-08-06 06:54:00,
2013-08-06 01:59:00,68.8,67.3,29.85,SW,229,6.0,9.0,95,0.00,,,0.00,Wunderground v.1.15,2013-08-06 06:59:00,
2013-08-06 02:00:00,68.8,67.3,29.85,SW,231,7.0,8.0,95,0.00,,,0.00,Wunderground v.1.15,2013-08-06 07:00:00,
2013-08-06 02:02:00,68.8,67.6,29.85,SW,231,7.0,8.0,96,0.00,,,0.00,Wunderground v.1.15,2013-08-06 07:02:00,
2013-08-06 02:04:00,68.7,67.5,29.85,SSW,200,6.0,8.0,96,0.00,,,0.00,Wunderground v.1.15,2013-08-06 07:04:00,
2013-08-06 02:06:00,68.7,67.5,29.85,SSW,213,6.0,8.0,96,0.00,,,0.00,Wunderground v.1.15,2013-08-06 07:06:00,
2013-08-06 02:08:00,68.6,67.4,29.85,South,188,7.0,8.0,96,0.00,,,0.00,Wunderground v.1.15,2013-08-06 07:08:00,
2013-08-06 02:12:00,68.5,67.3,29.84,South,191,7.0,8.0,96,0.00,,,0.00,Wunderground v.1.15,2013-08-06 07:12:00,
2013-08-06 02:14:00,68.4,67.2,29.84,SSW,195,7.0,10.0,96,0.00,,,0.00,Wunderground v.1.15,2013-08-06 07:14:00,
2013-08-06 02:16:00,68.3,67.1,29.84,SSW,195,7.0,10.0,96,0.00,,,0.00,Wunderground v.1.15,2013-08-06 07:16:00,
2013-08-06 02:18:00,68.2,67.0,29.84,South,183,7.0,10.0,96,0.00,,,0.00,Wunderground v.1.15,2013-08-06 07:18:00,
2013-08-06 02:20:00,68.1,66.9,29.84,SW,225,7.0,7.0,96,0.00,,,0.00,Wunderground v.1.15,2013-08-06 07:20:00,
2013-08-06 02:22:00,68.0,66.8,29.84,SSW,193,7.0,8.0,96,0.00,,,0.00,Wunderground v.1.15,2013-08-06 07:22:00,
2013-08-06 02:26:00,67.9,66.7,29.84,SSW,193,6.0,8.0,96,0.00,,,0.00,Wunderground v.1.15,2013-08-06 07:26:00,
2013-08-06 02:28:00,67.8,66.6,29.83,SSW,195,6.0,8.0,96,0.00,,,0.00,Wunderground v.1.15,2013-08-06 07:28:00,
2013-08-06 02:34:00,67.6,66.7,29.83,SSW,198,5.0,8.0,97,0.00,,,0.00,Wunderground v.1.15,2013-08-06 07:34:00,
2013-08-06 02:36:00,67.6,66.7,29.83,South,185,5.0,8.0,97,0.00,,,0.00,Wunderground v.1.15,2013-08-06 07:36:00,
2013-08-06 02:40:00,67.5,66.6,29.83,South,187,4.0,8.0,97,0.00,,,0.00,Wunderground v.1.15,2013-08-06 07:40:00,
2013-08-06 02:42:00,67.5,66.6,29.83,SSW,198,4.0,8.0,97,0.00,,,0.00,Wunderground v.1.15,2013-08-06 07:42:00,
2013-08-06 02:46:00,67.3,66.4,29.83,SSW,201,4.0,8.0,97,0.00,,,0.00,Wunderground v.1.15,2013-08-06 07:46:00,
2013-08-06 02:48:00,67.4,66.5,29.83,South,179,4.0,8.0,97,0.00,,,0.00,Wunderground v.1.15,2013-08-06 07:48:00,
2013-08-06 02:52:00,67.3,66.4,29.83,South,186,4.0,8.0,97,0.00,,,0.00,Wunderground v.1.15,2013-08-06 07:52:00,
2013-08-06 02:58:00,67.3,66.7,29.83,SSW,208,5.0,8.0,98,0.00,,,0.00,Wunderground v.1.15,2013-08-06 07:58:00,
2013-08-06 03:00:00,67.3,66.7,29.83,SSW,200,5.0,5.0,98,0.00,,,0.00,Wunderground v.1.15,2013-08-06 08:00:00,
2013-08-06 03:02:00,67.4,66.8,29.83,SSW,208,5.0,8.0,98,0.00,,,0.00,Wunderground v.1.15,2013-08-06 08:02:00,
2013-08-06 03:06:00,67.4,66.8,29.83,SSW,207,5.0,8.0,98,0.00,,,0.00,Wunderground v.1.15,2013-08-06 08:06:00,
2013-08-06 03:10:00,67.4,66.8,29.83,SSW,203,5.0,8.0,98,0.00,,,0.00,Wunderground v.1.15,2013-08-06 08:10:00,
2013-08-06 03:12:00,67.4,66.8,29.83,South,188,5.0,8.0,98,0.00,,,0.00,Wunderground v.1.15,2013-08-06 08:12:00,
2013-08-06 03:14:00,67.5,66.9,29.83,SSW,206,6.0,8.0,98,0.00,,,0.00,Wunderground v.1.15,2013-08-06 08:14:00,
2013-08-06 03:16:00,67.5,66.9,29.82,SSW,192,6.0,8.0,98,0.00,,,0.00,Wunderground v.1.15,2013-08-06 08:16:00,
2013-08-06 03:22:00,67.6,67.0,29.82,SSW,203,6.0,8.0,98,0.00,,,0.00,Wunderground v.1.15,2013-08-06 08:22:00,
2013-08-06 03:24:00,67.6,67.0,29.82,SSW,195,6.0,8.0,98,0.00,,,0.00,Wunderground v.1.15,2013-08-06 08:24:00,
2013-08-06 03:26:00,67.6,67.0,29.82,SSW,198,6.0,8.0,98,0.00,,,0.00,Wunderground v.1.15,2013-08-06 08:26:00,
2013-08-06 03:28:00,67.6,67.0,29.82,SSW,207,5.0,8.0,98,0.00,,,0.00,Wunderground v.1.15,2013-08-06 08:28:00,
2013-08-06 03:30:00,67.6,67.0,29.82,SSW,195,5.0,8.0,98,0.00,,,0.00,Wunderground v.1.15,2013-08-06 08:30:00,
2013-08-06 03:32:00,67.6,67.0,29.82,SSW,200,5.0,8.0,98,0.00,,,0.00,Wunderground v.1.15,2013-08-06 08:32:00,
2013-08-06 03:36:00,67.6,67.0,29.81,SSW,195,6.0,8.0,98,0.00,,,0.00,Wunderground v.1.15,2013-08-06 08:36:00,
2013-08-06 03:38:00,67.6,67.0,29.81,SSW,207,6.0,8.0,98,0.00,,,0.00,Wunderground v.1.15,2013-08-06 08:38:00,
2013-08-06 03:40:00,67.6,67.0,29.81,SSW,193,6.0,8.0,98,0.00,,,0.00,Wunderground v.1.15,2013-08-06 08:40:00,
2013-08-06 03:44:00,67.6,67.0,29.81,SSW,201,6.0,8.0,98,0.00,,,0.00,Wunderground v.1.15,2013-08-06 08:44:00,
2013-08-06 03:46:00,67.6,67.0,29.81,SSW,194,6.0,8.0,98,0.00,,,0.00,Wunderground v.1.15,2013-08-06 08:46:00,
2013-08-06 03:48:00,67.6,67.0,29.81,SSW,199,6.0,8.0,98,0.00,,,0.00,Wunderground v.1.15,2013-08-06 08:48:00,
2013-08-06 03:54:00,67.6,67.0,29.81,South,186,6.0,8.0,98,0.00,,,0.00,Wunderground v.1.15,2013-08-06 08:54:00,
2013-08-06 03:56:00,67.6,67.0,29.80,SSW,195,5.0,8.0,98,0.00,,,0.00,Wunderground v.1.15,2013-08-06 08:56:00,
2013-08-06 03:58:00,67.6,67.0,29.80,SSW,204,5.0,8.0,98,0.00,,,0.00,Wunderground v.1.15,2013-08-06 08:58:00,
2013-08-06 04:00:00,67.6,67.0,29.80,SSW,208,5.0,5.0,98,0.00,,,0.00,Wunderground v.1.15,2013-08-06 09:00:00,
2013-08-06 04:04:00,67.6,67.0,29.80,SSW,213,5.0,8.0,98,0.00,,,0.00,Wunderground v.1.15,2013-08-06 09:04:00,
2013-08-06 04:06:00,67.6,67.0,29.80,SSW,205,4.0,8.0,98,0.00,,,0.00,Wunderground v.1.15,2013-08-06 09:06:00,
2013-08-06 04:08:00,67.6,67.0,29.80,SSW,198,4.0,8.0,98,0.00,,,0.00,Wunderground v.1.15,2013-08-06 09:08:00,
2013-08-06 04:12:00,67.6,67.0,29.81,SSW,207,4.0,8.0,98,0.00,,,0.00,Wunderground v.1.15,2013-08-06 09:12:00,
2013-08-06 04:14:00,67.6,67.0,29.81,SSW,193,4.0,8.0,98,0.00,,,0.00,Wunderground v.1.15,2013-08-06 09:14:00,
2013-08-06 04:20:00,67.6,67.3,29.81,South,188,4.0,8.0,99,0.00,,,0.00,Wunderground v.1.15,2013-08-06 09:20:00,
2013-08-06 04:22:00,67.6,67.3,29.81,South,170,4.0,8.0,99,0.00,,,0.00,Wunderground v.1.15,2013-08-06 09:22:00,
2013-08-06 04:24:00,67.6,67.3,29.81,SSW,207,4.0,8.0,99,0.00,,,0.00,Wunderground v.1.15,2013-08-06 09:24:00,
2013-08-06 04:26:00,67.6,67.3,29.81,SSW,199,4.0,8.0,99,0.00,,,0.00,Wunderground v.1.15,2013-08-06 09:26:00,
2013-08-06 04:30:00,67.7,67.4,29.81,SSW,194,5.0,8.0,99,0.00,,,0.00,Wunderground v.1.15,2013-08-06 09:30:00,
2013-08-06 04:32:00,67.7,67.4,29.81,South,179,5.0,8.0,99,0.00,,,0.00,Wunderground v.1.15,2013-08-06 09:32:00,
2013-08-06 04:36:00,67.7,67.4,29.81,SSW,198,5.0,8.0,99,0.00,,,0.00,Wunderground v.1.15,2013-08-06 09:36:00,
2013-08-06 04:40:00,67.8,67.5,29.81,SSW,203,4.0,8.0,99,0.00,,,0.00,Wunderground v.1.15,2013-08-06 09:40:00,
2013-08-06 04:42:00,67.8,67.5,29.81,South,176,4.0,8.0,99,0.00,,,0.00,Wunderground v.1.15,2013-08-06 09:42:00,
2013-08-06 04:44:00,67.8,67.5,29.81,SSW,203,5.0,8.0,99,0.00,,,0.00,Wunderground v.1.15,2013-08-06 09:44:00,
2013-08-06 04:48:00,67.8,67.5,29.81,SSW,193,5.0,8.0,99,0.00,,,0.00,Wunderground v.1.15,2013-08-06 09:48:00,
2013-08-06 04:50:00,67.9,67.6,29.81,South,190,5.0,5.0,99,0.00,,,0.00,Wunderground v.1.15,2013-08-06 09:50:00,
2013-08-06 04:52:00,67.9,67.6,29.82,South,185,5.0,6.0,99,0.00,,,0.00,Wunderground v.1.15,2013-08-06 09:52:00,
2013-08-06 04:54:00,67.9,67.6,29.82,South,191,5.0,8.0,99,0.00,,,0.00,Wunderground v.1.15,2013-08-06 09:54:00,
2013-08-06 05:00:00,68.0,67.7,29.81,SSW,209,5.0,8.0,99,0.00,,,0.00,Wunderground v.1.15,2013-08-06 10:00:00,
2013-08-06 05:04:00,68.0,67.7,29.81,SSW,204,5.0,8.0,99,0.00,,,0.00,Wunderground v.1.15,2013-08-06 10:04:00,
2013-08-06 05:08:00,68.1,67.8,29.82,SW,222,5.0,8.0,99,0.00,,,0.00,Wunderground v.1.15,2013-08-06 10:08:00,
2013-08-06 05:10:00,68.1,67.8,29.82,SSW,208,4.0,4.0,99,0.00,,,0.00,Wunderground v.1.15,2013-08-06 10:10:00,
2013-08-06 05:14:00,68.1,67.8,29.82,SW,221,4.0,8.0,99,0.00,,,0.00,Wunderground v.1.15,2013-08-06 10:14:00,
2013-08-06 05:16:00,68.1,67.8,29.82,SSW,200,4.0,8.0,99,0.00,,,0.00,Wunderground v.1.15,2013-08-06 10:16:00,
2013-08-06 05:20:00,68.1,67.8,29.82,SSW,198,4.0,8.0,99,0.00,,,0.00,Wunderground v.1.15,2013-08-06 10:20:00,
2013-08-06 05:22:00,68.1,67.8,29.82,SSW,203,4.0,8.0,99,0.00,,,0.00,Wunderground v.1.15,2013-08-06 10:22:00,
2013-08-06 05:24:00,68.2,67.9,29.82,South,188,4.0,8.0,99,0.00,,,0.00,Wunderground v.1.15,2013-08-06 10:24:00,
2013-08-06 05:26:00,68.1,67.8,29.82,SSE,148,4.0,8.0,99,0.00,,,0.00,Wunderground v.1.15,2013-08-06 10:26:00,
2013-08-06 05:28:00,68.2,67.9,29.82,SSW,199,4.0,8.0,99,0.00,,,0.00,Wunderground v.1.15,2013-08-06 10:28:00,
2013-08-06 05:30:00,68.2,67.9,29.82,SSE,156,3.0,8.0,99,0.00,,,0.00,Wunderground v.1.15,2013-08-06 10:30:00,
2013-08-06 05:34:00,68.2,67.9,29.82,SSW,195,3.0,8.0,99,0.00,,,0.00,Wunderground v.1.15,2013-08-06 10:34:00,
2013-08-06 05:36:00,68.2,67.9,29.82,South,187,3.0,8.0,99,0.00,,,0.00,Wunderground v.1.15,2013-08-06 10:36:00,
2013-08-06 05:38:00,68.2,67.9,29.82,SSW,198,3.0,8.0,99,0.00,,,0.00,Wunderground v.1.15,2013-08-06 10:38:00,
2013-08-06 05:42:00,68.2,67.9,29.82,SSW,208,3.0,8.0,99,0.00,,,0.00,Wunderground v.1.15,2013-08-06 10:42:00,
2013-08-06 05:44:00,68.3,68.0,29.82,South,172,3.0,8.0,99,0.00,,,0.00,Wunderground v.1.15,2013-08-06 10:44:00,
2013-08-06 05:46:00,68.3,68.0,29.82,SSW,199,3.0,8.0,99,0.00,,,0.00,Wunderground v.1.15,2013-08-06 10:46:00,
2013-08-06 05:50:00,68.3,68.0,29.83,SSW,193,3.0,3.0,99,0.00,,,0.00,Wunderground v.1.15,2013-08-06 10:50:00,
2013-08-06 05:54:00,68.3,68.0,29.83,SW,224,2.0,8.0,99,0.00,,,0.00,Wunderground v.1.15,2013-08-06 10:54:00,
2013-08-06 05:56:00,68.3,68.0,29.83,SW,228,2.0,8.0,99,0.00,,,0.00,Wunderground v.1.15,2013-08-06 10:56:00,
2013-08-06 05:58:00,68.3,68.0,29.83,SW,225,2.0,8.0,99,0.00,,,0.00,Wunderground v.1.15,2013-08-06 10:58:00,
2013-08-06 06:02:00,68.3,68.0,29.83,SW,232,1.0,8.0,99,0.00,,,0.00,Wunderground v.1.15,2013-08-06 11:02:00,
2013-08-06 06:04:00,68.3,68.0,29.83,SW,224,2.0,8.0,99,0.00,,,0.00,Wunderground v.1.15,2013-08-06 11:04:00,
2013-08-06 06:06:00,68.3,68.0,29.83,SW,218,2.0,8.0,99,0.00,,,0.00,Wunderground v.1.15,2013-08-06 11:06:00,
2013-08-06 06:10:00,68.3,68.0,29.84,SW,235,2.0,2.0,99,0.00,,,0.00,Wunderground v.1.15,2013-08-06 11:10:00,
2013-08-06 06:12:00,68.3,68.0,29.84,WSW,243,2.0,8.0,99,0.00,,,0.00,Wunderground v.1.15,2013-08-06 11:12:00,
2013-08-06 06:14:00,68.3,68.0,29.84,SW,224,2.0,8.0,99,0.00,,,0.00,Wunderground v.1.15,2013-08-06 11:14:00,
2013-08-06 06:18:00,68.3,68.0,29.84,SW,236,1.0,8.0,99,0.00,,,0.00,Wunderground v.1.15,2013-08-06 11:18:00,
2013-08-06 06:20:00,68.3,68.0,29.84,SW,229,1.0,8.0,99,0.00,,,0.00,Wunderground v.1.15,2013-08-06 11:20:00,
2013-08-06 06:22:00,68.2,67.9,29.84,SW,224,2.0,8.0,99,0.00,,,0.00,Wunderground v.1.15,2013-08-06 11:22:00,
2013-08-06 06:24:00,68.3,68.0,29.84,SW,226,2.0,8.0,99,0.00,,,0.00,Wunderground v.1.15,2013-08-06 11:24:00,
2013-08-06 06:26:00,68.3,68.0,29.84,SW,217,2.0,8.0,99,0.00,,,0.00,Wunderground v.1.15,2013-08-06 11:26:00,
2013-08-06 06:28:00,68.3,68.0,29.84,SW,226,2.0,8.0,99,0.00,,,0.00,Wunderground v.1.15,2013-08-06 11:28:00,
2013-08-06 06:32:00,68.3,68.0,29.84,SSW,208,2.0,8.0,99,0.00,,,0.00,Wunderground v.1.15,2013-08-06 11:32:00,
2013-08-06 06:36:00,68.3,68.0,29.84,SW,217,1.0,8.0,99,0.00,,,0.00,Wunderground v.1.15,2013-08-06 11:36:00,
2013-08-06 06:38:00,68.3,68.0,29.84,SSW,208,1.0,8.0,99,0.00,,,0.00,Wunderground v.1.15,2013-08-06 11:38:00,
2013-08-06 06:40:00,68.3,68.0,29.84,SSW,211,1.0,8.0,99,0.00,,,0.00,Wunderground v.1.15,2013-08-06 11:40:00,
2013-08-06 06:44:00,68.3,68.0,29.84,SW,217,2.0,8.0,99,0.00,,,0.00,Wunderground v.1.15,2013-08-06 11:44:00,
2013-08-06 06:46:00,68.3,68.0,29.84,SW,228,2.0,8.0,99,0.00,,,0.00,Wunderground v.1.15,2013-08-06 11:46:00,
2013-08-06 06:48:00,68.3,68.0,29.84,SW,224,1.0,8.0,99,0.00,,,0.00,Wunderground v.1.15,2013-08-06 11:48:00,
2013-08-06 06:54:00,68.4,68.1,29.84,SSW,207,1.0,8.0,99,0.00,,,0.00,Wunderground v.1.15,2013-08-06 11:54:00,
2013-08-06 06:56:00,68.4,68.1,29.84,SW,221,2.0,8.0,99,0.00,,,0.00,Wunderground v.1.15,2013-08-06 11:56:00,
2013-08-06 06:58:00,68.4,68.1,29.84,South,181,2.0,8.0,99,0.00,,,0.00,Wunderground v.1.15,2013-08-06 11:58:00,
2013-08-06 07:00:00,68.4,68.1,29.84,SSW,208,2.0,8.0,99,0.00,,,0.00,Wunderground v.1.15,2013-08-06 12:00:00,
2013-08-06 07:02:00,68.4,68.1,29.84,SW,214,2.0,8.0,99,0.00,,,0.00,Wunderground v.1.15,2013-08-06 12:02:00,
2013-08-06 07:06:00,68.4,68.1,29.84,SW,219,2.0,8.0,99,0.00,,,0.00,Wunderground v.1.15,2013-08-06 12:06:00,
2013-08-06 07:10:00,68.4,68.1,29.84,SSW,200,2.0,8.0,99,0.00,,,0.00,Wunderground v.1.15,2013-08-06 12:10:00,
2013-08-06 07:14:00,68.4,68.1,29.84,SSW,204,3.0,8.0,99,0.00,,,0.00,Wunderground v.1.15,2013-08-06 12:14:00,
2013-08-06 07:16:00,68.4,68.1,29.85,SSW,192,3.0,8.0,99,0.00,,,0.00,Wunderground v.1.15,2013-08-06 12:16:00,
2013-08-06 07:22:00,68.4,68.1,29.85,SSW,200,5.0,8.0,99,0.00,,,0.00,Wunderground v.1.15,2013-08-06 12:22:00,
2013-08-06 07:28:00,68.3,68.0,29.85,South,183,6.0,10.0,99,0.00,,,0.00,Wunderground v.1.15,2013-08-06 12:28:00,
2013-08-06 07:30:00,68.4,68.1,29.85,SSW,200,6.0,6.0,99,0.00,,,0.00,Wunderground v.1.15,2013-08-06 12:30:00,
2013-08-06 07:34:00,68.4,68.1,29.86,SSW,207,6.0,8.0,99,0.00,,,0.00,Wunderground v.1.15,2013-08-06 12:34:00,
2013-08-06 07:36:00,68.4,68.1,29.86,South,186,5.0,8.0,99,0.00,,,0.00,Wunderground v.1.15,2013-08-06 12:36:00,
2013-08-06 07:40:00,68.4,68.1,29.86,WSW,256,4.0,4.0,99,0.00,,,0.00,Wunderground v.1.15,2013-08-06 12:40:00,
2013-08-06 07:42:00,68.4,68.1,29.86,SSW,192,4.0,8.0,99,0.00,,,0.00,Wunderground v.1.15,2013-08-06 12:42:00,
2013-08-06 07:46:00,68.5,68.2,29.86,SW,236,4.0,8.0,99,0.00,,,0.00,Wunderground v.1.15,2013-08-06 12:46:00,
2013-08-06 07:50:00,68.6,68.3,29.86,SSW,201,4.0,8.0,99,0.00,,,0.00,Wunderground v.1.15,2013-08-06 12:50:00,
2013-08-06 07:54:00,68.6,68.3,29.86,SSW,211,4.0,8.0,99,0.00,,,0.00,Wunderground v.1.15,2013-08-06 12:54:00,
2013-08-06 07:56:00,68.5,68.2,29.86,SW,224,4.0,8.0,99,0.00,,,0.00,Wunderground v.1.15,2013-08-06 12:56:00,
2013-08-06 07:58:00,68.5,68.2,29.86,SSW,208,5.0,8.0,99,0.00,,,0.00,Wunderground v.1.15,2013-08-06 12:58:00,
2013-08-06 08:02:00,68.5,68.2,29.86,SSW,206,6.0,8.0,99,0.00,,,0.00,Wunderground v.1.15,2013-08-06 13:02:00,
2013-08-06 08:04:00,68.4,68.1,29.86,SSW,203,7.0,10.0,99,0.00,,,0.00,Wunderground v.1.15,2013-08-06 13:04:00,
2013-08-06 08:06:00,68.5,68.2,29.86,SSW,212,8.0,10.0,99,0.00,,,0.00,Wunderground v.1.15,2013-08-06 13:06:00,
2013-08-06 08:08:00,68.5,68.2,29.86,SSW,204,8.0,10.0,99,0.00,,,0.00,Wunderground v.1.15,2013-08-06 13:08:00,
2013-08-06 08:10:00,68.5,68.2,29.86,SSW,203,8.0,8.0,99,0.00,,,0.00,Wunderground v.1.15,2013-08-06 13:10:00,
2013-08-06 08:12:00,68.5,68.2,29.86,SSW,194,8.0,8.0,99,0.00,,,0.00,Wunderground v.1.15,2013-08-06 13:12:00,
2013-08-06 08:14:00,68.5,68.2,29.86,SW,219,7.0,8.0,99,0.00,,,0.00,Wunderground v.1.15,2013-08-06 13:14:00,
2013-08-06 08:16:00,68.5,68.2,29.86,SSW,197,7.0,8.0,99,0.00,,,0.00,Wunderground v.1.15,2013-08-06 13:16:00,
2013-08-06 08:18:00,68.5,68.2,29.86,SSW,198,6.0,8.0,99,0.00,,,0.00,Wunderground v.1.15,2013-08-06 13:18:00,
2013-08-06 08:20:00,68.6,68.3,29.86,SSW,197,6.0,6.0,99,0.00,,,0.00,Wunderground v.1.15,2013-08-06 13:20:00,
2013-08-06 08:24:00,68.5,68.2,29.86,SSW,193,7.0,11.0,99,0.00,,,0.00,Wunderground v.1.15,2013-08-06 13:24:00,
2013-08-06 08:26:00,68.5,68.2,29.86,SW,217,8.0,11.0,99,0.00,,,0.00,Wunderground v.1.15,2013-08-06 13:26:00,
2013-08-06 08:30:00,68.5,68.2,29.86,SSE,156,8.0,8.0,99,0.00,,,0.00,Wunderground v.1.15,2013-08-06 13:30:00,
2013-08-06 08:32:00,68.6,68.3,29.86,SW,214,8.0,8.0,99,0.00,,,0.00,Wunderground v.1.15,2013-08-06 13:32:00,
2013-08-06 08:36:00,68.6,68.3,29.86,SSW,198,7.0,8.0,99,0.00,,,0.00,Wunderground v.1.15,2013-08-06 13:36:00,
2013-08-06 08:38:00,68.6,68.3,29.86,SSW,197,7.0,11.0,99,0.00,,,0.00,Wunderground v.1.15,2013-08-06 13:38:00,
2013-08-06 08:44:00,68.6,68.3,29.87,SW,226,8.0,9.0,99,0.00,,,0.00,Wunderground v.1.15,2013-08-06 13:44:00,
2013-08-06 08:46:00,68.6,68.3,29.86,SW,226,7.0,9.0,99,0.00,,,0.00,Wunderground v.1.15,2013-08-06 13:46:00,
2013-08-06 08:54:00,68.8,68.5,29.86,SW,236,6.0,6.0,99,0.00,,,0.00,Wunderground v.1.15,2013-08-06 13:54:00,
2013-08-06 08:56:00,68.9,68.6,29.86,SW,229,6.0,8.0,99,0.00,,,0.00,Wunderground v.1.15,2013-08-06 13:56:00,
2013-08-06 09:00:00,69.0,68.7,29.86,SW,229,5.0,5.0,99,0.00,,,0.00,Wunderground v.1.15,2013-08-06 14:00:00,
2013-08-06 09:04:00,69.1,68.8,29.87,SW,217,5.0,8.0,99,0.00,,,0.00,Wunderground v.1.15,2013-08-06 14:04:00,
2013-08-06 09:06:00,69.2,68.9,29.87,SW,233,5.0,8.0,99,0.00,,,0.00,Wunderground v.1.15,2013-08-06 14:06:00,
2013-08-06 09:08:00,69.2,68.9,29.87,SSW,200,5.0,8.0,99,0.00,,,0.00,Wunderground v.1.15,2013-08-06 14:08:00,
2013-08-06 09:10:00,69.2,68.9,29.87,South,184,6.0,8.0,99,0.00,,,0.00,Wunderground v.1.15,2013-08-06 14:10:00,
2013-08-06 09:12:00,69.2,68.9,29.87,WSW,243,6.0,8.0,99,0.00,,,0.00,Wunderground v.1.15,2013-08-06 14:12:00,
2013-08-06 09:16:00,69.2,68.9,29.87,SW,222,5.0,8.0,99,0.00,,,0.00,Wunderground v.1.15,2013-08-06 14:16:00,
2013-08-06 09:22:00,69.3,69.0,29.87,SSW,199,6.0,8.0,99,0.00,,,0.00,Wunderground v.1.15,2013-08-06 14:22:00,
2013-08-06 09:26:00,69.3,69.0,29.87,SW,231,6.0,8.0,99,0.00,,,0.00,Wunderground v.1.15,2013-08-06 14:26:00,
2013-08-06 09:29:00,69.3,69.0,29.87,SW,225,5.0,8.0,99,0.00,,,0.00,Wunderground v.1.15,2013-08-06 14:29:00,
2013-08-06 09:30:00,69.4,69.1,29.87,SW,229,5.0,8.0,99,0.00,,,0.00,Wunderground v.1.15,2013-08-06 14:30:00,
2013-08-06 09:32:00,69.4,69.1,29.87,SW,215,6.0,8.0,99,0.00,,,0.00,Wunderground v.1.15,2013-08-06 14:32:00,
2013-08-06 09:34:00,69.4,69.1,29.87,WSW,240,6.0,9.0,99,0.00,,,0.00,Wunderground v.1.15,2013-08-06 14:34:00,
2013-08-06 09:36:00,69.5,69.2,29.88,WSW,238,6.0,9.0,99,0.00,,,0.00,Wunderground v.1.15,2013-08-06 14:36:00,
2013-08-06 09:38:00,69.6,69.3,29.88,SW,228,6.0,9.0,99,0.00,,,0.00,Wunderground v.1.15,2013-08-06 14:38:00,
2013-08-06 09:40:00,69.8,69.5,29.88,SSW,200,6.0,6.0,99,0.00,,,0.00,Wunderground v.1.15,2013-08-06 14:40:00,
2013-08-06 09:42:00,69.9,69.6,29.87,SW,225,6.0,8.0,99,0.00,,,0.00,Wunderground v.1.15,2013-08-06 14:42:00,
2013-08-06 09:46:00,70.1,69.8,29.87,SW,226,5.0,8.0,99,0.00,,,0.00,Wunderground v.1.15,2013-08-06 14:46:00,
2013-08-06 09:48:00,70.2,69.9,29.87,SW,236,5.0,8.0,99,0.00,,,0.00,Wunderground v.1.15,2013-08-06 14:48:00,
2013-08-06 09:50:00,70.3,70.0,29.87,SW,229,5.0,8.0,99,0.00,,,0.00,Wunderground v.1.15,2013-08-06 14:50:00,
2013-08-06 09:54:00,70.5,69.9,29.87,SW,219,5.0,8.0,98,0.00,,,0.00,Wunderground v.1.15,2013-08-06 14:54:00,
2013-08-06 09:56:00,70.5,69.9,29.87,SW,233,5.0,8.0,98,0.00,,,0.00,Wunderground v.1.15,2013-08-06 14:56:00,
2013-08-06 10:00:00,70.7,70.1,29.87,WSW,238,5.0,5.0,98,0.00,,,0.00,Wunderground v.1.15,2013-08-06 15:00:00,
2013-08-06 10:02:00,70.8,70.2,29.87,SSW,211,5.0,6.0,98,0.00,,,0.00,Wunderground v.1.15,2013-08-06 15:02:00,
2013-08-06 10:04:00,70.8,70.2,29.87,SW,218,5.0,8.0,98,0.00,,,0.00,Wunderground v.1.15,2013-08-06 15:04:00,
2013-08-06 10:06:00,70.9,70.0,29.87,SW,233,5.0,8.0,97,0.00,,,0.00,Wunderground v.1.15,2013-08-06 15:06:00,
2013-08-06 10:08:00,71.1,70.5,29.87,SSW,211,4.0,8.0,98,0.00,,,0.00,Wunderground v.1.15,2013-08-06 15:08:00,
2013-08-06 10:10:00,71.2,70.3,29.87,SW,214,5.0,5.0,97,0.00,,,0.00,Wunderground v.1.15,2013-08-06 15:10:00,
2013-08-06 10:14:00,71.3,70.4,29.87,WSW,245,5.0,8.0,97,0.00,,,0.00,Wunderground v.1.15,2013-08-06 15:14:00,
2013-08-06 10:16:00,71.4,70.5,29.87,SW,232,5.0,8.0,97,0.00,,,0.00,Wunderground v.1.15,2013-08-06 15:16:00,
2013-08-06 10:18:00,71.4,70.2,29.87,SW,217,5.0,8.0,96,0.00,,,0.00,Wunderground v.1.15,2013-08-06 15:18:00,
2013-08-06 10:20:00,71.5,70.6,29.87,WSW,253,5.0,5.0,97,0.00,,,0.00,Wunderground v.1.15,2013-08-06 15:20:00,
2013-08-06 10:24:00,71.7,70.5,29.87,WSW,252,5.0,10.0,96,0.00,,,0.00,Wunderground v.1.15,2013-08-06 15:24:00,
2013-08-06 10:28:00,72.0,70.8,29.87,SW,229,5.0,10.0,96,0.00,,,0.00,Wunderground v.1.15,2013-08-06 15:28:00,
2013-08-06 10:30:00,72.0,70.8,29.87,SW,221,6.0,8.0,96,0.00,,,0.00,Wunderground v.1.15,2013-08-06 15:30:00,
2013-08-06 10:34:00,72.0,70.8,29.87,SSW,211,7.0,8.0,96,0.00,,,0.00,Wunderground v.1.15,2013-08-06 15:34:00,
2013-08-06 10:36:00,72.1,70.9,29.87,SW,218,8.0,8.0,96,0.00,,,0.00,Wunderground v.1.15,2013-08-06 15:36:00,
2013-08-06 10:40:00,72.3,71.1,29.87,WSW,257,7.0,7.0,96,0.00,,,0.00,Wunderground v.1.15,2013-08-06 15:40:00,
2013-08-06 10:42:00,72.4,71.2,29.87,SW,232,7.0,8.0,96,0.00,,,0.00,Wunderground v.1.15,2013-08-06 15:42:00,
2013-08-06 10:48:00,72.9,71.4,29.86,SW,233,6.0,8.0,95,0.00,,,0.00,Wunderground v.1.15,2013-08-06 15:48:00,
2013-08-06 10:52:00,73.1,71.6,29.86,WSW,245,6.0,8.0,95,0.00,,,0.00,Wunderground v.1.15,2013-08-06 15:52:00,
2013-08-06 10:54:00,73.4,71.9,29.86,SW,233,6.0,8.0,95,0.00,,,0.00,Wunderground v.1.15,2013-08-06 15:54:00,
2013-08-06 10:58:00,73.8,72.0,29.86,SW,233,5.0,8.0,94,0.00,,,0.00,Wunderground v.1.15,2013-08-06 15:58:00,
2013-08-06 11:00:00,73.9,71.7,29.86,WSW,240,5.0,8.0,93,0.00,,,0.00,Wunderground v.1.15,2013-08-06 16:00:00,
2013-08-06 11:02:00,74.0,72.2,29.86,SW,214,5.0,8.0,94,0.00,,,0.00,Wunderground v.1.15,2013-08-06 16:02:00,
2013-08-06 11:04:00,74.1,71.9,29.86,WSW,238,5.0,8.0,93,0.00,,,0.00,Wunderground v.1.15,2013-08-06 16:04:00,
2013-08-06 11:06:00,74.2,72.0,29.86,SW,217,5.0,8.0,93,0.00,,,0.00,Wunderground v.1.15,2013-08-06 16:06:00,
2013-08-06 11:08:00,74.4,72.2,29.86,SW,232,5.0,8.0,93,0.00,,,0.00,Wunderground v.1.15,2013-08-06 16:08:00,
2013-08-06 11:10:00,74.5,72.0,29.86,WSW,250,5.0,8.0,92,0.00,,,0.00,Wunderground v.1.15,2013-08-06 16:10:00,
2013-08-06 11:16:00,74.7,72.2,29.86,SW,233,5.0,8.0,92,0.00,,,0.00,Wunderground v.1.15,2013-08-06 16:16:00,
2013-08-06 11:20:00,75.0,72.8,29.86,SSW,205,5.0,5.0,93,0.00,,,0.00,Wunderground v.1.15,2013-08-06 16:20:00,
2013-08-06 11:22:00,75.1,72.6,29.86,SW,236,5.0,8.0,92,0.00,,,0.00,Wunderground v.1.15,2013-08-06 16:22:00,
2013-08-06 11:28:00,75.5,73.0,29.86,SW,221,4.0,8.0,92,0.00,,,0.00,Wunderground v.1.15,2013-08-06 16:28:00,
2013-08-06 11:30:00,75.5,72.7,29.86,SW,235,5.0,8.0,91,0.00,,,0.00,Wunderground v.1.15,2013-08-06 16:30:00,
2013-08-06 11:34:00,75.5,72.7,29.86,SW,228,6.0,8.0,91,0.00,,,0.00,Wunderground v.1.15,2013-08-06 16:34:00,
2013-08-06 11:36:00,75.5,72.7,29.86,SSW,208,6.0,8.0,91,0.00,,,0.00,Wunderground v.1.15,2013-08-06 16:36:00,
2013-08-06 11:40:00,75.8,73.0,29.85,SW,233,7.0,7.0,91,0.00,,,0.00,Wunderground v.1.15,2013-08-06 16:40:00,
2013-08-06 11:42:00,76.1,73.3,29.86,WSW,253,6.0,8.0,91,0.00,,,0.00,Wunderground v.1.15,2013-08-06 16:42:00,
2013-08-06 11:44:00,76.3,73.5,29.86,SW,229,6.0,8.0,91,0.00,,,0.00,Wunderground v.1.15,2013-08-06 16:44:00,
2013-08-06 11:46:00,76.2,73.1,29.86,WSW,239,6.0,8.0,90,0.00,,,0.00,Wunderground v.1.15,2013-08-06 16:46:00,
2013-08-06 11:48:00,76.3,73.1,29.85,SW,225,5.0,8.0,90,0.00,,,0.00,Wunderground v.1.15,2013-08-06 16:48:00,
2013-08-06 11:50:00,76.5,73.3,29.86,SW,219,5.0,8.0,90,0.00,,,0.00,Wunderground v.1.15,2013-08-06 16:50:00,
2013-08-06 11:52:00,76.6,73.1,29.86,SW,214,6.0,8.0,89,0.00,,,0.00,Wunderground v.1.15,2013-08-06 16:52:00,
2013-08-06 11:54:00,76.7,72.9,29.86,WSW,248,6.0,8.0,88,0.00,,,0.00,Wunderground v.1.15,2013-08-06 16:54:00,
2013-08-06 11:58:00,77.2,73.4,29.86,WSW,246,6.0,8.0,88,0.00,,,0.00,Wunderground v.1.15,2013-08-06 16:58:00,
2013-08-06 12:04:00,77.5,73.3,29.86,SW,229,5.0,8.0,87,0.00,,,0.00,Wunderground v.1.15,2013-08-06 17:04:00,
2013-08-06 12:06:00,77.4,73.2,29.86,SSW,211,5.0,8.0,87,0.00,,,0.00,Wunderground v.1.15,2013-08-06 17:06:00,
2013-08-06 12:10:00,77.4,73.2,29.86,SW,228,6.0,6.0,87,0.00,,,0.00,Wunderground v.1.15,2013-08-06 17:10:00,
2013-08-06 12:12:00,77.6,73.8,29.86,SW,225,6.0,10.0,88,0.00,,,0.00,Wunderground v.1.15,2013-08-06 17:12:00,
2013-08-06 12:14:00,77.9,73.7,29.86,WSW,239,6.0,10.0,87,0.00,,,0.00,Wunderground v.1.15,2013-08-06 17:14:00,
2013-08-06 12:16:00,78.1,73.6,29.86,SW,229,6.0,10.0,86,0.00,,,0.00,Wunderground v.1.15,2013-08-06 17:16:00,
2013-08-06 12:18:00,78.0,73.5,29.86,SW,221,6.0,10.0,86,0.00,,,0.00,Wunderground v.1.15,2013-08-06 17:18:00,
2013-08-06 12:20:00,78.1,73.6,29.86,SW,229,6.0,10.0,86,0.00,,,0.00,Wunderground v.1.15,2013-08-06 17:20:00,
2013-08-06 12:24:00,78.6,74.1,29.86,SW,219,6.0,10.0,86,0.00,,,0.00,Wunderground v.1.15,2013-08-06 17:24:00,
2013-08-06 12:26:00,78.8,74.3,29.86,WSW,246,7.0,10.0,86,0.00,,,0.00,Wunderground v.1.15,2013-08-06 17:26:00,
2013-08-06 12:30:00,79.4,74.5,29.85,SW,231,6.0,9.0,85,0.00,,,0.00,Wunderground v.1.15,2013-08-06 17:30:00,
2013-08-06 12:34:00,79.8,74.5,29.85,SW,232,6.0,9.0,84,0.00,,,0.00,Wunderground v.1.15,2013-08-06 17:34:00,
2013-08-06 12:36:00,79.7,74.4,29.85,SW,236,6.0,9.0,84,0.00,,,0.00,Wunderground v.1.15,2013-08-06 17:36:00,
2013-08-06 12:40:00,79.3,73.7,29.84,WSW,246,6.0,6.0,83,0.00,,,0.00,Wunderground v.1.15,2013-08-06 17:40:00,
2013-08-06 12:42:00,79.3,74.4,29.84,WNW,286,5.0,8.0,85,0.00,,,0.00,Wunderground v.1.15,2013-08-06 17:42:00,
2013-08-06 12:44:00,79.6,74.3,29.84,SW,226,5.0,8.0,84,0.00,,,0.00,Wunderground v.1.15,2013-08-06 17:44:00,
2013-08-06 12:50:00,79.6,74.0,29.84,SW,219,5.0,8.0,83,0.00,,,0.00,Wunderground v.1.15,2013-08-06 17:50:00,
2013-08-06 12:52:00,79.5,73.9,29.84,SW,226,5.0,8.0,83,0.00,,,0.00,Wunderground v.1.15,2013-08-06 17:52:00,
2013-08-06 12:54:00,79.4,74.1,29.83,SW,224,5.0,8.0,84,0.00,,,0.00,Wunderground v.1.15,2013-08-06 17:54:00,
2013-08-06 12:58:00,79.5,73.9,29.83,West,260,5.0,8.0,83,0.00,,,0.00,Wunderground v.1.15,2013-08-06 17:58:00,
2013-08-06 13:00:00,79.4,73.8,29.83,SW,218,5.0,5.0,83,0.00,,,0.00,Wunderground v.1.15,2013-08-06 18:00:00,
2013-08-06 13:04:00,79.8,74.5,29.83,SW,233,4.0,8.0,84,0.00,,,0.00,Wunderground v.1.15,2013-08-06 18:04:00,
2013-08-06 13:08:00,79.9,73.9,29.83,SW,226,5.0,11.0,82,0.00,,,0.00,Wunderground v.1.15,2013-08-06 18:08:00,
2013-08-06 13:10:00,79.8,73.4,29.83,SW,218,6.0,8.0,81,0.00,,,0.00,Wunderground v.1.15,2013-08-06 18:10:00,
2013-08-06 13:12:00,79.8,74.2,29.83,SSW,212,6.0,8.0,83,0.00,,,0.00,Wunderground v.1.15,2013-08-06 18:12:00,
2013-08-06 13:16:00,80.1,74.8,29.83,SW,226,6.0,8.0,84,0.00,,,0.00,Wunderground v.1.15,2013-08-06 18:16:00,
2013-08-06 13:18:00,80.1,74.8,29.83,WSW,247,5.0,8.0,84,0.00,,,0.00,Wunderground v.1.15,2013-08-06 18:18:00,
2013-08-06 13:22:00,80.4,74.8,29.83,SW,215,5.0,8.0,83,0.00,,,0.00,Wunderground v.1.15,2013-08-06 18:22:00,
2013-08-06 13:24:00,80.8,75.5,29.83,SW,215,6.0,8.0,84,0.00,,,0.00,Wunderground v.1.15,2013-08-06 18:24:00,
2013-08-06 13:26:00,81.4,75.4,29.83,SW,217,6.0,8.0,82,0.00,,,0.00,Wunderground v.1.15,2013-08-06 18:26:00,
2013-08-06 13:30:00,81.5,75.1,29.83,SW,233,6.0,8.0,81,0.00,,,0.00,Wunderground v.1.15,2013-08-06 18:30:00,
2013-08-06 13:32:00,81.3,73.8,29.83,SW,221,6.0,8.0,78,0.00,,,0.00,Wunderground v.1.15,2013-08-06 18:32:00,
2013-08-06 13:34:00,81.1,74.7,29.82,WSW,240,6.0,9.0,81,0.00,,,0.00,Wunderground v.1.15,2013-08-06 18:34:00,
2013-08-06 13:36:00,81.1,74.3,29.82,SW,235,7.0,9.0,80,0.00,,,0.00,Wunderground v.1.15,2013-08-06 18:36:00,
2013-08-06 13:40:00,81.3,74.9,29.82,SW,236,6.0,10.0,81,0.00,,,0.00,Wunderground v.1.15,2013-08-06 18:40:00,
2013-08-06 13:42:00,81.4,74.3,29.82,West,263,6.0,10.0,79,0.00,,,0.00,Wunderground v.1.15,2013-08-06 18:42:00,
2013-08-06 13:44:00,81.4,74.6,29.81,SW,215,6.0,10.0,80,0.00,,,0.00,Wunderground v.1.15,2013-08-06 18:44:00,
2013-08-06 13:48:00,81.4,75.0,29.81,South,190,5.0,10.0,81,0.00,,,0.00,Wunderground v.1.15,2013-08-06 18:48:00,
2013-08-06 13:50:00,81.4,74.3,29.81,SSW,200,5.0,5.0,79,0.00,,,0.00,Wunderground v.1.15,2013-08-06 18:50:00,
2013-08-06 13:54:00,81.5,74.0,29.81,WSW,242,5.0,8.0,78,0.00,,,0.00,Wunderground v.1.15,2013-08-06 18:54:00,
2013-08-06 13:56:00,81.6,74.1,29.81,SSW,197,5.0,8.0,78,0.00,,,0.00,Wunderground v.1.15,2013-08-06 18:56:00,
2013-08-06 13:58:00,81.9,75.1,29.81,SSW,212,5.0,8.0,80,0.00,,,0.00,Wunderground v.1.15,2013-08-06 18:58:00,
2013-08-06 14:02:00,82.5,74.6,29.80,SW,233,5.0,8.0,77,0.00,,,0.00,Wunderground v.1.15,2013-08-06 19:02:00,
2013-08-06 14:04:00,82.8,75.2,29.80,WSW,254,5.0,8.0,78,0.00,,,0.00,Wunderground v.1.15,2013-08-06 19:04:00,
2013-08-06 14:08:00,82.8,74.5,29.80,SSW,207,6.0,8.0,76,0.00,,,0.00,Wunderground v.1.15,2013-08-06 19:08:00,
2013-08-06 14:10:00,82.9,74.6,29.80,South,179,6.0,6.0,76,0.00,,,0.00,Wunderground v.1.15,2013-08-06 19:10:00,
2013-08-06 14:12:00,83.2,75.6,29.80,SW,219,6.0,8.0,78,0.00,,,0.00,Wunderground v.1.15,2013-08-06 19:12:00,
2013-08-06 14:14:00,83.2,74.8,29.80,SSW,208,6.0,8.0,76,0.00,,,0.00,Wunderground v.1.15,2013-08-06 19:14:00,
2013-08-06 14:18:00,83.1,74.4,29.80,SSW,208,6.0,9.0,75,0.00,,,0.00,Wunderground v.1.15,2013-08-06 19:18:00,
2013-08-06 14:22:00,83.1,74.4,29.80,SSW,205,6.0,8.0,75,0.00,,,0.00,Wunderground v.1.15,2013-08-06 19:22:00,
2013-08-06 14:24:00,83.3,74.9,29.80,SW,220,6.0,8.0,76,0.00,,,0.00,Wunderground v.1.15,2013-08-06 19:24:00,
2013-08-06 14:28:00,83.9,75.1,29.80,WSW,250,5.0,8.0,75,0.00,,,0.00,Wunderground v.1.15,2013-08-06 19:28:00,
2013-08-06 14:30:00,83.9,73.5,29.80,SW,232,5.0,8.0,71,0.00,,,0.00,Wunderground v.1.15,2013-08-06 19:30:00,
2013-08-06 14:32:00,83.9,74.7,29.80,SW,225,5.0,8.0,74,0.00,,,0.00,Wunderground v.1.15,2013-08-06 19:32:00,
2013-08-06 14:34:00,84.1,75.3,29.80,SW,236,5.0,8.0,75,0.00,,,0.00,Wunderground v.1.15,2013-08-06 19:34:00,
2013-08-06 14:40:00,84.1,74.1,29.80,SW,215,5.0,9.0,72,0.00,,,0.00,Wunderground v.1.15,2013-08-06 19:40:00,
2013-08-06 14:42:00,83.7,73.3,29.80,SW,233,6.0,9.0,71,0.00,,,0.00,Wunderground v.1.15,2013-08-06 19:42:00,
2013-08-06 14:46:00,83.7,74.5,29.80,SSW,200,5.0,9.0,74,0.00,,,0.00,Wunderground v.1.15,2013-08-06 19:46:00,
2013-08-06 14:48:00,84.0,75.2,29.80,SSE,167,6.0,10.0,75,0.00,,,0.00,Wunderground v.1.15,2013-08-06 19:48:00,
2013-08-06 14:50:00,83.8,74.2,29.79,South,187,6.0,6.0,73,0.00,,,0.00,Wunderground v.1.15,2013-08-06 19:50:00,
2013-08-06 14:54:00,83.9,75.1,29.79,SSW,201,6.0,8.0,75,0.00,,,0.00,Wunderground v.1.15,2013-08-06 19:54:00,
2013-08-06 14:56:00,84.2,75.0,29.79,SSW,208,6.0,8.0,74,0.00,,,0.00,Wunderground v.1.15,2013-08-06 19:56:00,
2013-08-06 14:58:00,84.4,74.8,29.79,SSW,198,7.0,8.0,73,0.00,,,0.00,Wunderground v.1.15,2013-08-06 19:58:00,
2013-08-06 15:02:00,84.4,74.4,29.79,SSW,197,7.0,11.0,72,0.00,,,0.00,Wunderground v.1.15,2013-08-06 20:02:00,
2013-08-06 15:04:00,84.5,75.7,29.79,South,172,8.0,11.0,75,0.00,,,0.00,Wunderground v.1.15,2013-08-06 20:04:00,
2013-08-06 15:06:00,84.7,75.5,29.79,SSW,200,8.0,11.0,74,0.00,,,0.00,Wunderground v.1.15,2013-08-06 20:06:00,
2013-08-06 15:12:00,85.2,75.1,29.79,SW,235,6.0,8.0,72,0.00,,,0.00,Wunderground v.1.15,2013-08-06 20:12:00,
2013-08-06 15:14:00,85.1,75.1,29.79,SSW,198,6.0,8.0,72,0.00,,,0.00,Wunderground v.1.15,2013-08-06 20:14:00,
2013-08-06 15:16:00,85.1,75.1,29.78,SSW,199,5.0,8.0,72,0.00,,,0.00,Wunderground v.1.15,2013-08-06 20:16:00,
2013-08-06 15:20:00,85.1,75.9,29.78,SSW,194,6.0,8.0,74,0.00,,,0.00,Wunderground v.1.15,2013-08-06 20:20:00,
2013-08-06 15:22:00,85.0,74.5,29.78,SSW,208,6.0,8.0,71,0.00,,,0.00,Wunderground v.1.15,2013-08-06 20:22:00,
2013-08-06 15:24:00,84.6,74.2,29.78,South,183,7.0,8.0,71,0.00,,,0.00,Wunderground v.1.15,2013-08-06 20:24:00,
2013-08-06 15:30:00,84.2,75.4,29.79,SSW,195,7.0,8.0,75,0.00,,,0.00,Wunderground v.1.15,2013-08-06 20:30:00,
2013-08-06 15:32:00,83.9,74.7,29.78,SSW,204,8.0,8.0,74,0.00,,,0.00,Wunderground v.1.15,2013-08-06 20:32:00,
2013-08-06 15:36:00,83.6,75.2,29.79,SSW,195,8.0,9.0,76,0.00,,,0.00,Wunderground v.1.15,2013-08-06 20:36:00,
2013-08-06 15:38:00,83.3,74.9,29.79,SSW,210,8.0,9.0,76,0.00,,,0.00,Wunderground v.1.15,2013-08-06 20:38:00,
2013-08-06 15:40:00,83.1,75.1,29.79,SSW,200,8.0,8.0,77,0.00,,,0.00,Wunderground v.1.15,2013-08-06 20:40:00,
2013-08-06 15:42:00,83.0,75.0,29.79,South,191,7.0,8.0,77,0.00,,,0.00,Wunderground v.1.15,2013-08-06 20:42:00,
2013-08-06 15:44:00,82.9,74.6,29.78,South,174,7.0,8.0,76,0.00,,,0.00,Wunderground v.1.15,2013-08-06 20:44:00,
2013-08-06 15:48:00,82.6,75.0,29.79,SSW,211,6.0,8.0,78,0.00,,,0.00,Wunderground v.1.15,2013-08-06 20:48:00,
2013-08-06 15:50:00,82.6,75.8,29.78,SW,215,6.0,8.0,80,0.00,,,0.00,Wunderground v.1.15,2013-08-06 20:50:00,
2013-08-06 15:52:00,82.5,74.9,29.78,SW,215,6.0,8.0,78,0.00,,,0.00,Wunderground v.1.15,2013-08-06 20:52:00,
2013-08-06 15:54:00,82.3,74.7,29.78,SSW,200,6.0,8.0,78,0.00,,,0.00,Wunderground v.1.15,2013-08-06 20:54:00,
2013-08-06 15:56:00,82.1,74.6,29.78,SW,232,6.0,8.0,78,0.00,,,0.00,Wunderground v.1.15,2013-08-06 20:56:00,
2013-08-06 15:58:00,82.0,74.8,29.78,South,187,6.0,8.0,79,0.00,,,0.00,Wunderground v.1.15,2013-08-06 20:58:00,
2013-08-06 16:00:00,81.9,74.7,29.78,South,174,6.0,6.0,79,0.00,,,0.00,Wunderground v.1.15,2013-08-06 21:00:00,
2013-08-06 16:02:00,81.7,74.5,29.78,South,173,5.0,8.0,79,0.00,,,0.00,Wunderground v.1.15,2013-08-06 21:02:00,
2013-08-06 16:04:00,81.6,74.5,29.78,WSW,240,5.0,8.0,79,0.00,,,0.00,Wunderground v.1.15,2013-08-06 21:04:00,
2013-08-06 16:08:00,81.4,75.0,29.79,SW,217,3.0,8.0,81,0.00,,,0.00,Wunderground v.1.15,2013-08-06 21:08:00,
2013-08-06 16:10:00,81.4,75.0,29.79,SSW,198,3.0,3.0,81,0.00,,,0.00,Wunderground v.1.15,2013-08-06 21:10:00,
2013-08-06 16:12:00,81.3,75.3,29.79,SSW,192,2.0,8.0,82,0.00,,,0.00,Wunderground v.1.15,2013-08-06 21:12:00,
2013-08-06 16:14:00,81.3,75.6,29.79,SSW,208,2.0,8.0,83,0.00,,,0.00,Wunderground v.1.15,2013-08-06 21:14:00,
2013-08-06 16:18:00,81.2,75.5,29.79,SSW,200,2.0,8.0,83,0.00,,,0.00,Wunderground v.1.15,2013-08-06 21:18:00,
2013-08-06 16:20:00,81.2,75.5,29.79,South,188,2.0,8.0,83,0.00,,,0.00,Wunderground v.1.15,2013-08-06 21:20:00,
2013-08-06 16:22:00,81.2,75.5,29.79,South,183,2.0,8.0,83,0.00,,,0.00,Wunderground v.1.15,2013-08-06 21:22:00,
2013-08-06 16:26:00,81.1,75.4,29.79,SSW,193,3.0,8.0,83,0.00,,,0.00,Wunderground v.1.15,2013-08-06 21:26:00,
2013-08-06 16:28:00,81.1,75.4,29.79,SSW,212,2.0,8.0,83,0.00,,,0.00,Wunderground v.1.15,2013-08-06 21:28:00,
2013-08-06 16:30:00,81.0,75.3,29.79,SSW,193,3.0,8.0,83,0.00,,,0.00,Wunderground v.1.15,2013-08-06 21:30:00,
2013-08-06 16:34:00,80.7,75.4,29.79,South,185,3.0,8.0,84,0.00,,,0.00,Wunderground v.1.15,2013-08-06 21:34:00,
2013-08-06 16:38:00,80.5,75.2,29.79,SW,215,3.0,8.0,84,0.00,,,0.00,Wunderground v.1.15,2013-08-06 21:38:00,
2013-08-06 16:40:00,80.5,75.6,29.79,SSW,205,3.0,3.0,85,0.00,,,0.00,Wunderground v.1.15,2013-08-06 21:40:00,
2013-08-06 16:46:00,80.4,75.5,29.79,SSW,204,3.0,8.0,85,0.00,,,0.00,Wunderground v.1.15,2013-08-06 21:46:00,
2013-08-06 16:48:00,80.4,75.5,29.80,SSW,200,3.0,8.0,85,0.00,,,0.00,Wunderground v.1.15,2013-08-06 21:48:00,
2013-08-06 16:50:00,80.3,75.7,29.80,SSW,203,3.0,8.0,86,0.00,,,0.00,Wunderground v.1.15,2013-08-06 21:50:00,
2013-08-06 16:52:00,80.3,75.7,29.80,SSW,212,3.0,8.0,86,0.00,,,0.00,Wunderground v.1.15,2013-08-06 21:52:00,
2013-08-06 16:54:00,80.3,75.7,29.80,SSW,193,3.0,8.0,86,0.00,,,0.00,Wunderground v.1.15,2013-08-06 21:54:00,
2013-08-06 16:56:00,80.2,75.6,29.80,SSW,197,3.0,8.0,86,0.00,,,0.00,Wunderground v.1.15,2013-08-06 21:56:00,
2013-08-06 17:00:00,80.2,75.6,29.80,SSW,193,3.0,3.0,86,0.00,,,0.00,Wunderground v.1.15,2013-08-06 22:00:00,
2013-08-06 17:02:00,80.1,75.5,29.80,SSW,212,3.0,8.0,86,0.00,,,0.00,Wunderground v.1.15,2013-08-06 22:02:00,
2013-08-06 17:06:00,80.1,75.5,29.80,SSW,205,3.0,8.0,86,0.00,,,0.00,Wunderground v.1.15,2013-08-06 22:06:00,
2013-08-06 17:08:00,80.0,75.4,29.80,SSW,204,3.0,8.0,86,0.00,,,0.00,Wunderground v.1.15,2013-08-06 22:08:00,
2013-08-06 17:10:00,80.0,75.4,29.79,South,187,3.0,8.0,86,0.00,,,0.00,Wunderground v.1.15,2013-08-06 22:10:00,
2013-08-06 17:12:00,79.9,75.3,29.79,SSW,197,3.0,8.0,86,0.00,,,0.00,Wunderground v.1.15,2013-08-06 22:12:00,
2013-08-06 17:14:00,79.9,75.7,29.80,SSW,193,3.0,8.0,87,0.00,,,0.00,Wunderground v.1.15,2013-08-06 22:14:00,
2013-08-06 17:18:00,79.9,75.7,29.79,South,188,3.0,8.0,87,0.00,,,0.00,Wunderground v.1.15,2013-08-06 22:18:00,
2013-08-06 17:20:00,79.9,75.7,29.80,SSW,194,3.0,8.0,87,0.00,,,0.00,Wunderground v.1.15,2013-08-06 22:20:00,
2013-08-06 17:22:00,79.9,75.7,29.80,SSW,197,3.0,8.0,87,0.00,,,0.00,Wunderground v.1.15,2013-08-06 22:22:00,
2013-08-06 17:28:00,79.8,75.9,29.80,SW,214,3.0,8.0,88,0.00,,,0.00,Wunderground v.1.15,2013-08-06 22:28:00,
2013-08-06 17:30:00,79.8,75.9,29.80,SW,228,2.0,2.0,88,0.00,,,0.00,Wunderground v.1.15,2013-08-06 22:30:00,
2013-08-06 17:32:00,79.8,75.9,29.80,SSW,201,2.0,8.0,88,0.00,,,0.00,Wunderground v.1.15,2013-08-06 22:32:00,
2013-08-06 17:36:00,79.7,75.8,29.80,SSW,207,1.0,8.0,88,0.00,,,0.00,Wunderground v.1.15,2013-08-06 22:36:00,
2013-08-06 17:38:00,79.7,75.8,29.80,SSW,210,2.0,8.0,88,0.00,,,0.00,Wunderground v.1.15,2013-08-06 22:38:00,
2013-08-06 17:40:00,79.6,76.1,29.80,SSW,210,2.0,8.0,89,0.00,,,0.00,Wunderground v.1.15,2013-08-06 22:40:00,
2013-08-06 17:42:00,79.5,76.0,29.80,SSW,194,3.0,8.0,89,0.00,,,0.00,Wunderground v.1.15,2013-08-06 22:42:00,
2013-08-06 17:46:00,79.4,75.9,29.80,SSW,208,4.0,8.0,89,0.00,,,0.00,Wunderground v.1.15,2013-08-06 22:46:00,
2013-08-06 17:50:00,79.3,76.1,29.80,SSW,210,4.0,4.0,90,0.00,,,0.00,Wunderground v.1.15,2013-08-06 22:50:00,
2013-08-06 17:52:00,79.3,76.1,29.80,SSW,211,3.0,8.0,90,0.00,,,0.00,Wunderground v.1.15,2013-08-06 22:52:00,
2013-08-06 17:54:00,79.3,76.1,29.80,SW,217,3.0,8.0,90,0.00,,,0.00,Wunderground v.1.15,2013-08-06 22:54:00,
2013-08-06 17:56:00,79.4,76.2,29.80,SW,214,2.0,8.0,90,0.00,,,0.00,Wunderground v.1.15,2013-08-06 22:56:00,
2013-08-06 17:58:00,79.4,76.2,29.80,South,191,2.0,8.0,90,0.00,,,0.00,Wunderground v.1.15,2013-08-06 22:58:00,
2013-08-06 18:02:00,79.5,76.3,29.80,SSW,204,2.0,8.0,90,0.00,,,0.00,Wunderground v.1.15,2013-08-06 23:02:00,
2013-08-06 18:04:00,79.6,76.4,29.80,SSW,200,3.0,8.0,90,0.00,,,0.00,Wunderground v.1.15,2013-08-06 23:04:00,
2013-08-06 18:06:00,79.7,76.5,29.80,SSW,208,3.0,8.0,90,0.00,,,0.00,Wunderground v.1.15,2013-08-06 23:06:00,
2013-08-06 18:12:00,80.5,77.0,29.80,SSW,197,3.0,8.0,89,0.00,,,0.00,Wunderground v.1.15,2013-08-06 23:12:00,
2013-08-06 18:16:00,81.2,76.6,29.80,SSW,212,4.0,8.0,86,0.00,,,0.00,Wunderground v.1.15,2013-08-06 23:16:00,
2013-08-06 18:18:00,81.4,76.5,29.80,SSW,201,4.0,8.0,85,0.00,,,0.00,Wunderground v.1.15,2013-08-06 23:18:00,
2013-08-06 18:22:00,81.7,76.4,29.80,SSW,194,5.0,9.0,84,0.00,,,0.00,Wunderground v.1.15,2013-08-06 23:22:00,
2013-08-06 18:24:00,81.8,76.5,29.80,SSW,198,5.0,9.0,84,0.00,,,0.00,Wunderground v.1.15,2013-08-06 23:24:00,
2013-08-06 18:26:00,81.8,76.1,29.80,West,260,5.0,9.0,83,0.00,,,0.00,Wunderground v.1.15,2013-08-06 23:26:00,
2013-08-06 18:30:00,82.1,76.8,29.80,SSW,208,5.0,5.0,84,0.00,,,0.00,Wunderground v.1.15,2013-08-06 23:30:00,
2013-08-06 18:32:00,82.2,76.2,29.80,West,260,5.0,8.0,82,0.00,,,0.00,Wunderground v.1.15,2013-08-06 23:32:00,
2013-08-06 18:34:00,82.2,76.2,29.80,SW,221,4.0,8.0,82,0.00,,,0.00,Wunderground v.1.15,2013-08-06 23:34:00,
2013-08-06 18:38:00,82.2,76.5,29.80,SSW,193,4.0,8.0,83,0.00,,,0.00,Wunderground v.1.15,2013-08-06 23:38:00,
2013-08-06 18:40:00,82.1,76.1,29.80,SSW,193,4.0,4.0,82,0.00,,,0.00,Wunderground v.1.15,2013-08-06 23:40:00,
2013-08-06 18:42:00,82.1,76.1,29.80,SSW,208,4.0,5.0,82,0.00,,,0.00,Wunderground v.1.15,2013-08-06 23:42:00,
2013-08-06 18:44:00,82.2,76.2,29.80,WSW,240,4.0,8.0,82,0.00,,,0.00,Wunderground v.1.15,2013-08-06 23:44:00,
2013-08-06 18:46:00,82.1,76.1,29.80,SW,219,4.0,8.0,82,0.00,,,0.00,Wunderground v.1.15,2013-08-06 23:46:00,
2013-08-06 18:50:00,82.0,76.0,29.80,SSW,210,4.0,4.0,82,0.00,,,0.00,Wunderground v.1.15,2013-08-06 23:50:00,
2013-08-06 18:52:00,82.0,76.3,29.80,SSW,211,4.0,8.0,83,0.00,,,0.00,Wunderground v.1.15,2013-08-06 23:52:00,
2013-08-06 18:54:00,81.9,75.9,29.80,SSW,210,3.0,8.0,82,0.00,,,0.00,Wunderground v.1.15,2013-08-06 23:54:00,
2013-08-06 18:58:00,81.8,76.1,29.80,SW,217,2.0,8.0,83,0.00,,,0.00,Wunderground v.1.15,2013-08-06 23:58:00,
2013-08-06 19:00:00,81.7,76.0,29.80,SW,231,2.0,8.0,83,0.00,,,0.00,Wunderground v.1.15,2013-08-07 00:00:00,
2013-08-06 19:06:00,81.2,75.5,29.80,SSW,204,2.0,8.0,83,0.00,,,0.00,Wunderground v.1.15,2013-08-07 00:06:00,
2013-08-06 19:08:00,81.1,75.8,29.80,SW,229,2.0,8.0,84,0.00,,,0.00,Wunderground v.1.15,2013-08-07 00:08:00,
2013-08-06 19:12:00,80.9,76.0,29.80,SW,233,2.0,8.0,85,0.00,,,0.00,Wunderground v.1.15,2013-08-07 00:12:00,
2013-08-06 19:14:00,80.9,76.0,29.80,SSW,212,2.0,8.0,85,0.00,,,0.00,Wunderground v.1.15,2013-08-07 00:14:00,
2013-08-06 19:16:00,81.0,76.1,29.80,SSW,210,2.0,8.0,85,0.00,,,0.00,Wunderground v.1.15,2013-08-07 00:16:00,
2013-08-06 19:22:00,80.8,76.2,29.80,SSW,194,1.0,8.0,86,0.00,,,0.00,Wunderground v.1.15,2013-08-07 00:22:00,
2013-08-06 19:28:00,80.2,75.6,29.79,South,177,2.0,8.0,86,0.00,,,0.00,Wunderground v.1.15,2013-08-07 00:28:00,
2013-08-06 19:30:00,80.1,75.9,29.79,South,186,3.0,3.0,87,0.00,,,0.00,Wunderground v.1.15,2013-08-07 00:30:00,
2013-08-06 19:32:00,79.9,75.7,29.79,SSW,196,3.0,8.0,87,0.00,,,0.00,Wunderground v.1.15,2013-08-07 00:32:00,
2013-08-06 19:36:00,79.5,75.6,29.79,SSW,197,3.0,8.0,88,0.00,,,0.00,Wunderground v.1.15,2013-08-07 00:36:00,
2013-08-06 19:38:00,79.3,75.4,29.79,South,186,3.0,8.0,88,0.00,,,0.00,Wunderground v.1.15,2013-08-07 00:38:00,
2013-08-06 19:40:00,79.2,75.3,29.79,SSW,194,3.0,8.0,88,0.00,,,0.00,Wunderground v.1.15,2013-08-07 00:40:00,
2013-08-06 19:44:00,79.0,75.1,29.79,South,190,3.0,8.0,88,0.00,,,0.00,Wunderground v.1.15,2013-08-07 00:44:00,
2013-08-06 19:46:00,78.9,75.4,29.79,SSW,193,2.0,8.0,89,0.00,,,0.00,Wunderground v.1.15,2013-08-07 00:46:00,
2013-08-06 19:50:00,78.6,75.1,29.79,SSW,194,2.0,2.0,89,0.00,,,0.00,Wunderground v.1.15,2013-08-07 00:50:00,
2013-08-06 19:54:00,78.4,75.2,29.79,SSW,195,1.0,8.0,90,0.00,,,0.00,Wunderground v.1.15,2013-08-07 00:54:00,
2013-08-06 19:56:00,78.3,75.1,29.79,SSW,194,1.0,8.0,90,0.00,,,0.00,Wunderground v.1.15,2013-08-07 00:56:00,
2013-08-06 19:58:00,78.3,75.1,29.79,SSW,194,0.0,8.0,90,0.00,,,0.00,Wunderground v.1.15,2013-08-07 00:58:00,
2013-08-06 20:02:00,78.1,74.9,29.79,SSW,194,0.0,8.0,90,0.00,,,0.00,Wunderground v.1.15,2013-08-07 01:02:00,
2013-08-06 20:04:00,77.9,74.7,29.79,SSW,194,0.0,8.0,90,0.00,,,0.00,Wunderground v.1.15,2013-08-07 01:04:00,
2013-08-06 20:06:00,77.8,74.6,29.79,SSW,194,0.0,8.0,90,0.00,,,0.00,Wunderground v.1.15,2013-08-07 01:06:00,
2013-08-06 20:10:00,77.4,74.6,29.79,SSE,150,0.0,8.0,91,0.00,,,0.00,Wunderground v.1.15,2013-08-07 01:10:00,
2013-08-06 20:12:00,77.2,74.4,29.79,SSE,151,0.0,8.0,91,0.00,,,0.00,Wunderground v.1.15,2013-08-07 01:12:00,
2013-08-06 20:14:00,77.1,74.3,29.79,SSE,150,0.0,8.0,91,0.00,,,0.00,Wunderground v.1.15,2013-08-07 01:14:00,
2013-08-06 20:16:00,77.0,74.2,29.79,SSE,151,0.0,8.0,91,0.00,,,0.00,Wunderground v.1.15,2013-08-07 01:16:00,
2013-08-06 20:18:00,76.9,74.4,29.79,SE,133,0.0,8.0,92,0.00,,,0.00,Wunderground v.1.15,2013-08-07 01:18:00,
2013-08-06 20:22:00,76.6,74.1,29.79,ESE,117,1.0,8.0,92,0.00,,,0.00,Wunderground v.1.15,2013-08-07 01:22:00,
2013-08-06 20:24:00,76.5,74.0,29.79,SE,137,1.0,8.0,92,0.00,,,0.00,Wunderground v.1.15,2013-08-07 01:24:00,
2013-08-06 20:26:00,76.3,73.8,29.80,SE,128,1.0,8.0,92,0.00,,,0.00,Wunderground v.1.15,2013-08-07 01:26:00,
2013-08-06 20:30:00,76.1,73.9,29.79,SE,127,2.0,8.0,93,0.00,,,0.00,Wunderground v.1.15,2013-08-07 01:30:00,
2013-08-06 20:32:00,76.0,73.8,29.80,ESE,118,2.0,8.0,93,0.00,,,0.00,Wunderground v.1.15,2013-08-07 01:32:00,
2013-08-06 20:36:00,75.8,73.9,29.80,ESE,120,2.0,8.0,94,0.00,,,0.00,Wunderground v.1.15,2013-08-07 01:36:00,
2013-08-06 20:38:00,75.7,73.8,29.80,ESE,118,2.0,8.0,94,0.00,,,0.00,Wunderground v.1.15,2013-08-07 01:38:00,
2013-08-06 20:42:00,75.5,73.7,29.80,ESE,122,2.0,8.0,94,0.00,,,0.00,Wunderground v.1.15,2013-08-07 01:42:00,
2013-08-06 20:44:00,75.5,73.7,29.80,SE,124,3.0,8.0,94,0.00,,,0.00,Wunderground v.1.15,2013-08-07 01:44:00,
2013-08-06 20:50:00,75.4,73.9,29.80,ESE,120,3.0,8.0,95,0.00,,,0.00,Wunderground v.1.15,2013-08-07 01:50:00,
2013-08-06 20:52:00,75.4,73.9,29.80,ESE,120,3.0,8.0,95,0.00,,,0.00,Wunderground v.1.15,2013-08-07 01:52:00,
2013-08-06 20:54:00,75.4,73.9,29.80,SE,129,3.0,8.0,95,0.00,,,0.00,Wunderground v.1.15,2013-08-07 01:54:00,
2013-08-06 20:56:00,75.3,73.8,29.80,ESE,122,3.0,8.0,95,0.00,,,0.00,Wunderground v.1.15,2013-08-07 01:56:00,
2013-08-06 21:00:00,75.2,73.7,29.80,ESE,117,3.0,8.0,95,0.00,,,0.00,Wunderground v.1.15,2013-08-07 02:00:00,
2013-08-06 21:02:00,75.2,73.7,29.80,SE,127,3.0,8.0,95,0.00,,,0.00,Wunderground v.1.15,2013-08-07 02:02:00,
2013-08-06 21:04:00,75.1,73.6,29.80,ESE,120,4.0,8.0,95,0.00,,,0.00,Wunderground v.1.15,2013-08-07 02:04:00,
2013-08-06 21:06:00,75.1,73.6,29.80,ESE,105,4.0,8.0,95,0.00,,,0.00,Wunderground v.1.15,2013-08-07 02:06:00,
2013-08-06 21:08:00,75.1,73.6,29.80,ESE,111,4.0,8.0,95,0.00,,,0.00,Wunderground v.1.15,2013-08-07 02:08:00,
2013-08-06 21:10:00,75.1,73.6,29.80,SE,124,4.0,4.0,95,0.00,,,0.00,Wunderground v.1.15,2013-08-07 02:10:00,
2013-08-06 21:14:00,75.0,73.5,29.81,ESE,117,2.0,8.0,95,0.00,,,0.00,Wunderground v.1.15,2013-08-07 02:14:00,
2013-08-06 21:16:00,75.0,73.8,29.80,SE,127,2.0,8.0,96,0.00,,,0.00,Wunderground v.1.15,2013-08-07 02:16:00,
2013-08-06 21:22:00,74.9,73.7,29.80,SE,127,2.0,8.0,96,0.00,,,0.00,Wunderground v.1.15,2013-08-07 02:22:00,
2013-08-06 21:24:00,74.9,73.7,29.80,SE,129,2.0,8.0,96,0.00,,,0.00,Wunderground v.1.15,2013-08-07 02:24:00,
2013-08-06 21:26:00,74.8,73.6,29.80,SE,131,2.0,8.0,96,0.00,,,0.00,Wunderground v.1.15,2013-08-07 02:26:00,
2013-08-06 21:30:00,74.7,73.5,29.80,ESE,109,2.0,2.0,96,0.00,,,0.00,Wunderground v.1.15,2013-08-07 02:30:00,
2013-08-06 21:32:00,74.7,73.5,29.80,SE,127,2.0,8.0,96,0.00,,,0.00,Wunderground v.1.15,2013-08-07 02:32:00,
2013-08-06 21:36:00,74.6,73.4,29.80,ESE,108,2.0,8.0,96,0.00,,,0.00,Wunderground v.1.15,2013-08-07 02:36:00,
2013-08-06 21:38:00,74.6,73.4,29.80,SE,128,1.0,8.0,96,0.00,,,0.00,Wunderground v.1.15,2013-08-07 02:38:00,
2013-08-06 21:40:00,74.6,73.4,29.81,SE,131,1.0,1.0,96,0.00,,,0.00,Wunderground v.1.15,2013-08-07 02:40:00,
2013-08-06 21:42:00,74.5,73.3,29.81,SE,143,1.0,8.0,96,0.00,,,0.00,Wunderground v.1.15,2013-08-07 02:42:00,
2013-08-06 21:46:00,74.4,73.2,29.81,SE,135,0.0,8.0,96,0.00,,,0.00,Wunderground v.1.15,2013-08-07 02:46:00,
2013-08-06 21:48:00,74.4,73.2,29.81,East,98,0.0,8.0,96,0.00,,,0.00,Wunderground v.1.15,2013-08-07 02:48:00,
2013-08-06 21:50:00,74.4,73.2,29.81,SE,142,1.0,1.0,96,0.00,,,0.00,Wunderground v.1.15,2013-08-07 02:50:00,
2013-08-06 21:52:00,74.4,73.2,29.81,SSE,150,1.0,8.0,96,0.00,,,0.00,Wunderground v.1.15,2013-08-07 02:52:00,
2013-08-06 21:56:00,74.4,73.2,29.81,SE,133,1.0,8.0,96,0.00,,,0.00,Wunderground v.1.15,2013-08-07 02:56:00,
2013-08-06 21:58:00,74.4,73.2,29.81,SE,137,1.0,8.0,96,0.00,,,0.00,Wunderground v.1.15,2013-08-07 02:58:00,
2013-08-06 22:02:00,74.4,73.2,29.81,SSE,167,1.0,8.0,96,0.00,,,0.00,Wunderground v.1.15,2013-08-07 03:02:00,
2013-08-06 22:04:00,74.4,73.2,29.81,ESE,107,1.0,8.0,96,0.00,,,0.00,Wunderground v.1.15,2013-08-07 03:04:00,
2013-08-06 22:06:00,74.3,73.1,29.81,SE,134,1.0,8.0,96,0.00,,,0.00,Wunderground v.1.15,2013-08-07 03:06:00,
2013-08-06 22:08:00,74.3,73.1,29.81,ESE,113,2.0,8.0,96,0.00,,,0.00,Wunderground v.1.15,2013-08-07 03:08:00,
2013-08-06 22:12:00,74.3,73.1,29.80,East,98,2.0,8.0,96,0.00,,,0.00,Wunderground v.1.15,2013-08-07 03:12:00,
2013-08-06 22:14:00,74.2,73.0,29.80,SE,137,3.0,8.0,96,0.00,,,0.00,Wunderground v.1.15,2013-08-07 03:14:00,
2013-08-06 22:18:00,74.2,73.0,29.81,ESE,112,2.0,8.0,96,0.00,,,0.00,Wunderground v.1.15,2013-08-07 03:18:00,
2013-08-06 22:20:00,74.1,72.9,29.81,SE,139,2.0,2.0,96,0.00,,,0.00,Wunderground v.1.15,2013-08-07 03:20:00,
2013-08-06 22:24:00,74.1,72.9,29.81,SSE,149,1.0,8.0,96,0.00,,,0.00,Wunderground v.1.15,2013-08-07 03:24:00,
2013-08-06 22:28:00,74.1,72.9,29.81,SE,131,1.0,8.0,96,0.00,,,0.00,Wunderground v.1.15,2013-08-07 03:28:00,
2013-08-06 22:30:00,74.1,73.2,29.80,SSW,192,1.0,8.0,97,0.00,,,0.00,Wunderground v.1.15,2013-08-07 03:30:00,
2013-08-06 22:32:00,74.2,73.3,29.80,South,188,0.0,8.0,97,0.00,,,0.00,Wunderground v.1.15,2013-08-07 03:32:00,
2013-08-06 22:36:00,74.2,73.3,29.80,SSE,149,1.0,8.0,97,0.00,,,0.00,Wunderground v.1.15,2013-08-07 03:36:00,
2013-08-06 22:40:00,74.3,73.4,29.80,SE,136,1.0,8.0,97,0.00,,,0.00,Wunderground v.1.15,2013-08-07 03:40:00,
2013-08-06 22:42:00,74.3,73.4,29.80,SE,143,1.0,8.0,97,0.00,,,0.00,Wunderground v.1.15,2013-08-07 03:42:00,
2013-08-06 22:46:00,74.4,73.2,29.80,SE,134,1.0,8.0,96,0.00,,,0.00,Wunderground v.1.15,2013-08-07 03:46:00,
2013-08-06 22:50:00,74.4,73.2,29.80,SE,143,1.0,8.0,96,0.00,,,0.00,Wunderground v.1.15,2013-08-07 03:50:00,
2013-08-06 22:52:00,74.4,73.2,29.80,ESE,116,1.0,8.0,96,0.00,,,0.00,Wunderground v.1.15,2013-08-07 03:52:00,
2013-08-06 22:54:00,74.4,73.2,29.80,SSE,149,1.0,8.0,96,0.00,,,0.00,Wunderground v.1.15,2013-08-07 03:54:00,
2013-08-06 22:58:00,74.4,73.2,29.79,SSE,155,1.0,8.0,96,0.00,,,0.00,Wunderground v.1.15,2013-08-07 03:58:00,
2013-08-06 23:00:00,74.4,73.2,29.79,South,190,1.0,8.0,96,0.00,,,0.00,Wunderground v.1.15,2013-08-07 04:00:00,
2013-08-06 23:02:00,74.3,73.1,29.79,SSW,197,1.0,8.0,96,0.00,,,0.00,Wunderground v.1.15,2013-08-07 04:02:00,
2013-08-06 23:06:00,74.3,73.1,29.79,SE,127,1.0,8.0,96,0.00,,,0.00,Wunderground v.1.15,2013-08-07 04:06:00,
2013-08-06 23:08:00,74.2,73.0,29.79,SSE,163,1.0,8.0,96,0.00,,,0.00,Wunderground v.1.15,2013-08-07 04:08:00,
2013-08-06 23:12:00,74.2,73.0,29.79,SSW,207,1.0,8.0,96,0.00,,,0.00,Wunderground v.1.15,2013-08-07 04:12:00,
2013-08-06 23:16:00,74.2,73.0,29.79,SE,136,1.0,8.0,96,0.00,,,0.00,Wunderground v.1.15,2013-08-07 04:16:00,
2013-08-06 23:18:00,74.2,73.0,29.79,SE,145,1.0,8.0,96,0.00,,,0.00,Wunderground v.1.15,2013-08-07 04:18:00,
2013-08-06 23:20:00,74.2,73.0,29.79,ESE,105,1.0,8.0,96,0.00,,,0.00,Wunderground v.1.15,2013-08-07 04:20:00,
2013-08-06 23:22:00,74.1,72.9,29.79,SE,139,1.0,8.0,96,0.00,,,0.00,Wunderground v.1.15,2013-08-07 04:22:00,
2013-08-06 23:24:00,74.1,72.9,29.79,SE,146,0.0,8.0,96,0.00,,,0.00,Wunderground v.1.15,2013-08-07 04:24:00,
2013-08-06 23:26:00,74.1,72.9,29.79,SSW,193,0.0,8.0,96,0.00,,,0.00,Wunderground v.1.15,2013-08-07 04:26:00,
2013-08-06 23:30:00,74.1,72.9,29.80,South,188,1.0,1.0,96,0.00,,,0.00,Wunderground v.1.15,2013-08-07 04:30:00,
2013-08-06 23:32:00,74.1,72.9,29.80,South,188,1.0,8.0,96,0.00,,,0.00,Wunderground v.1.15,2013-08-07 04:32:00,
2013-08-06 23:36:00,74.0,72.8,29.80,SSW,203,1.0,8.0,96,0.00,,,0.00,Wunderground v.1.15,2013-08-07 04:36:00,
2013-08-06 23:38:00,73.9,72.7,29.80,SSE,163,1.0,8.0,96,0.00,,,0.00,Wunderground v.1.15,2013-08-07 04:38:00,
2013-08-06 23:40:00,73.9,72.7,29.80,South,183,1.0,8.0,96,0.00,,,0.00,Wunderground v.1.15,2013-08-07 04:40:00,
2013-08-06 23:44:00,73.9,72.7,29.80,SSE,150,1.0,8.0,96,0.00,,,0.00,Wunderground v.1.15,2013-08-07 04:44:00,
2013-08-06 23:48:00,73.8,72.6,29.80,South,181,0.0,8.0,96,0.00,,,0.00,Wunderground v.1.15,2013-08-07 04:48:00,
2013-08-06 23:50:00,73.7,72.5,29.80,South,181,0.0,8.0,96,0.00,,,0.00,Wunderground v.1.15,2013-08-07 04:50:00,
2013-08-06 23:54:00,73.7,72.5,29.80,South,191,0.0,8.0,96,0.00,,,0.00,Wunderground v.1.15,2013-08-07 04:54:00,
2013-08-06 23:56:00,73.7,72.5,29.80,SSW,193,0.0,8.0,96,0.00,,,0.00,Wunderground v.1.15,2013-08-07 04:56:00,